Total_Precipitation_Accumulation
0.56 0.55 0.51 0.49 0.47 0.42 0.40 0.39 0.36 0.32 0.30 0.28 0.26 0.23 0.22 0.22 0.25 0.29 0.32 0.33 0.35 0.35 0.33 0.33 0.37 0.40 0.44 0.42 0.45 0.50 0.54 0.60 0.70 0.64 0.51 0.48 0.47 0.47 0.49 0.48 0.45 0.41 0.39
0.46 0.42 0.39 0.35 0.33 0.31 0.29 0.27 0.24 0.22 0.20 0.20 0.20 0.20 0.18 0.18 0.22 0.25 0.25 0.26 0.30 0.33 0.31 0.30 0.31 0.33 0.38 0.36 0.37 0.40 0.43 0.50 0.60 0.64 0.53 0.45 0.41 0.41 0.41 0.40 0.31 0.28 0.30
0.42 0.41 0.39 0.33 0.29 0.28 0.26 0.23 0.21 0.20 0.19 0.17 0.15 0.16 0.15 0.15 0.18 0.20 0.20 0.23 0.25 0.27 0.25 0.25 0.26 0.27 0.29 0.29 0.31 0.32 0.35 0.39 0.47 0.52 0.45 0.38 0.33 0.30 0.37 0.37 0.32 0.36 0.23
0.44 0.45 0.47 0.45 0.37 0.33 0.30 0.25 0.20 0.17 0.15 0.13 0.12 0.13 0.14 0.13 0.13 0.14 0.13 0.16 0.19 0.19 0.17 0.18 0.21 0.22 0.23 0.26 0.26 0.29 0.32 0.37 0.40 0.43 0.39 0.32 0.30 0.28 0.39 0.47 0.43 0.37 0.27
0.40 0.42 0.43 0.42 0.39 0.34 0.30 0.27 0.22 0.16 0.13 0.14 0.12 0.13 0.13 0.11 0.09 0.09 0.11 0.11 0.14 0.14 0.14 0.13 0.14 0.17 0.21 0.23 0.25 0.28 0.34 0.40 0.42 0.47 0.44 0.38 0.35 0.41 0.49 0.48 0.45 0.35 0.27
0.41 0.40 0.36 0.32 0.29 0.26 0.23 0.20 0.19 0.17 0.16 0.14 0.13 0.13 0.13 0.12 0.13 0.12 0.10 0.12 0.14 0.15 0.16 0.14 0.12 0.12 0.14 0.16 0.19 0.23 0.31 0.40 0.49 0.55 0.53 0.50 0.46 0.52 0.58 0.57 0.58 0.55 0.47
0.46 0.41 0.37 0.34 0.29 0.22 0.18 0.19 0.19 0.19 0.20 0.17 0.13 0.14 0.15 0.13 0.13 0.13 0.12 0.13 0.15 0.19 0.20 0.20 0.15 0.13 0.19 0.21 0.18 0.16 0.21 0.28 0.44 0.61 0.67 0.60 0.58 0.63 0.71 0.71 0.68 0.66 0.59
0.46 0.39 0.33 0.32 0.28 0.23 0.19 0.20 0.19 0.20 0.21 0.21 0.16 0.15 0.17 0.14 0.14 0.13 0.13 0.15 0.16 0.17 0.18 0.20 0.25 0.27 0.21 0.17 0.16 0.20 0.30 0.41 0.47 0.53 0.63 0.58 0.54 0.58 0.68 0.71 0.66 0.62 0.57
0.41 0.33 0.27 0.26 0.25 0.22 0.20 0.19 0.19 0.20 0.21 0.21 0.17 0.17 0.20 0.18 0.15 0.15 0.16 0.19 0.18 0.15 0.13 0.14 0.19 0.23 0.18 0.16 0.21 0.31 0.40 0.47 0.40 0.49 0.57 0.62 0.65 0.63 0.58 0.61 0.74 0.79 0.77
0.29 0.22 0.20 0.22 0.20 0.18 0.17 0.17 0.17 0.19 0.20 0.19 0.18 0.18 0.19 0.19 0.12 0.11 0.14 0.19 0.22 0.18 0.18 0.21 0.18 0.15 0.16 0.17 0.24 0.36 0.47 0.50 0.57 0.75 0.91 0.97 0.90 0.80 0.66 0.68 0.84 0.91 0.92
0.19 0.17 0.19 0.21 0.21 0.18 0.19 0.20 0.19 0.19 0.24 0.24 0.21 0.19 0.19 0.15 0.10 0.07 0.10 0.14 0.19 0.19 0.24 0.31 0.30 0.19 0.19 0.16 0.21 0.34 0.47 0.54 0.78 1.08 1.15 1.04 0.90 0.79 0.70 0.67 0.71 0.80 0.88
0.22 0.22 0.22 0.21 0.13 0.12 0.21 0.23 0.21 0.25 0.28 0.26 0.24 0.22 0.19 0.17 0.10 0.05 0.06 0.09 0.12 0.19 0.32 0.32 0.29 0.25 0.22 0.22 0.28 0.43 0.51 0.70 0.97 1.16 1.09 0.90 0.72 0.61 0.55 0.50 0.53 0.59 0.68
0.31 0.31 0.25 0.19 0.16 0.14 0.19 0.22 0.23 0.25 0.23 0.18 0.18 0.16 0.15 0.17 0.12 0.04 0.04 0.05 0.09 0.15 0.26 0.30 0.29 0.27 0.31 0.44 0.51 0.60 0.70 0.88 1.06 1.03 0.89 0.77 0.64 0.54 0.48 0.47 0.45 0.49 0.50
0.38 0.33 0.27 0.25 0.20 0.17 0.16 0.13 0.17 0.17 0.17 0.15 0.14 0.13 0.14 0.16 0.12 0.07 0.07 0.09 0.12 0.16 0.25 0.37 0.46 0.50 0.54 0.64 0.72 0.80 0.86 0.94 0.90 0.80 0.70 0.65 0.55 0.49 0.47 0.43 0.44 0.46 0.48
0.34 0.28 0.24 0.19 0.17 0.19 0.15 0.07 0.06 0.07 0.04 0.07 0.09 0.08 0.12 0.13 0.08 0.09 0.10 0.12 0.17 0.21 0.26 0.42 0.61 0.67 0.71 0.75 0.75 0.79 0.81 0.77 0.77 0.72 0.65 0.58 0.51 0.47 0.46 0.42 0.43 0.41 0.45
0.28 0.24 0.18 0.13 0.12 0.13 0.14 0.12 0.04 0.01 0.01 0.01 0.03 0.04 0.06 0.08 0.07 0.06 0.09 0.13 0.19 0.25 0.32 0.51 0.67 0.71 0.72 0.72 0.69 0.69 0.69 0.66 0.62 0.61 0.60 0.55 0.51 0.47 0.45 0.42 0.41 0.41 0.44
0.21 0.18 0.12 0.10 0.11 0.12 0.16 0.22 0.24 0.12 0.03 0.02 0.02 0.04 0.05 0.07 0.07 0.06 0.08 0.13 0.17 0.24 0.32 0.52 0.69 0.79 0.79 0.72 0.65 0.62 0.67 0.68 0.64 0.61 0.56 0.53 0.47 0.42 0.40 0.39 0.36 0.35 0.37
0.10 0.08 0.07 0.10 0.08 0.08 0.09 0.13 0.22 0.27 0.23 0.16 0.08 0.05 0.06 0.08 0.10 0.10 0.11 0.15 0.21 0.26 0.37 0.52 0.64 0.69 0.70 0.70 0.64 0.61 0.65 0.67 0.64 0.57 0.51 0.48 0.43 0.38 0.36 0.37 0.34 0.28 0.28
0.07 0.08 0.06 0.05 0.05 0.05 0.06 0.08 0.11 0.16 0.22 0.23 0.19 0.12 0.09 0.11 0.14 0.16 0.16 0.19 0.25 0.29 0.36 0.45 0.53 0.54 0.51 0.52 0.51 0.51 0.55 0.59 0.54 0.45 0.42 0.42 0.38 0.33 0.33 0.33 0.28 0.19 0.20
0.05 0.03 0.02 0.02 0.03 0.03 0.04 0.06 0.08 0.11 0.16 0.21 0.19 0.15 0.14 0.21 0.28 0.27 0.20 0.18 0.18 0.22 0.29 0.37 0.43 0.41 0.38 0.37 0.34 0.33 0.36 0.39 0.37 0.34 0.32 0.31 0.31 0.30 0.28 0.25 0.23 0.20 0.19
0.03 0.02 0.01 0.01 0.03 0.04 0.03 0.03 0.03 0.06 0.11 0.15 0.13 0.10 0.15 0.22 0.30 0.31 0.29 0.26 0.24 0.23 0.24 0.26 0.30 0.33 0.32 0.29 0.25 0.22 0.23 0.24 0.25 0.26 0.26 0.27 0.26 0.25 0.20 0.17 0.13 0.10 0.10
0.02 0.01 0.01 0.02 0.02 0.02 0.01 0.01 0.01 0.03 0.07 0.10 0.11 0.10 0.14 0.18 0.22 0.24 0.29 0.33 0.32 0.29 0.25 0.23 0.23 0.26 0.29 0.28 0.23 0.19 0.18 0.19 0.21 0.24 0.25 0.25 0.22 0.18 0.14 0.12 0.09 0.07 0.06
0.00 0.00 0.00 0.01 0.00 0.00 0.00 0.00 0.01 0.01 0.04 0.06 0.08 0.10 0.12 0.16 0.19 0.21 0.25 0.30 0.33 0.31 0.26 0.23 0.23 0.26 0.28 0.28 0.25 0.18 0.15 0.15 0.17 0.19 0.24 0.24 0.20 0.16 0.12 0.09 0.06 0.05 0.04
0.00 0.00 0.00 0.00 0.00 0.00 0.00 0.00 0.00 0.00 0.01 0.02 0.05 0.07 0.10 0.14 0.15 0.17 0.21 0.26 0.29 0.31 0.29 0.28 0.27 0.27 0.26 0.25 0.22 0.14 0.11 0.12 0.13 0.15 0.19 0.21 0.18 0.14 0.09 0.08 0.06 0.06 0.05
0.00 0.00 0.00 0.00 0.00 0.00 0.00 0.00 0.00 0.01 0.01 0.01 0.02 0.03 0.05 0.08 0.10 0.11 0.15 0.19 0.22 0.25 0.25 0.24 0.25 0.23 0.20 0.17 0.15 0.10 0.10 0.12 0.13 0.13 0.15 0.16 0.14 0.12 0.10 0.09 0.07 0.06 0.05
0.00 0.00 0.00 0.00 0.00 0.00 0.00 0.01 0.01 0.01 0.01 0.01 0.01 0.02 0.03 0.03 0.05 0.07 0.08 0.09 0.12 0.16 0.19 0.21 0.21 0.18 0.13 0.10 0.09 0.10 0.09 0.08 0.07 0.08 0.12 0.15 0.13 0.11 0.10 0.09 0.06 0.05 0.05